Location: Endfield
(51.6667°N, 0.0667°W)
Time: 13:44:29
(UTC+00:00)

Lacrosse 5 rocket - Pass Details

Date: 19 May 2024
Orbit: 445 x 572 km, 57.0° (Epoch: 16 June)

Event Time Altitude Azimuth Distance (km) Brightness Sun altitude
Rises 21:15:50 0° 235° (SW) 2,776 5.0 -10.2°
Reaches altitude 10° 21:18:05 10° 235° (SW) 1,878 4.1 -10.4°
Maximum altitude 21:22:22 82° 148° (SSE) 580 1.3 -10.8°
Drops below altitude 10° 21:26:35 10° 61° (ENE) 1,851 3.9 -11.2°
Sets 21:28:48 0° 61° (ENE) 2,732 4.8 -11.4°
